Location: Hurecourt
(47.9030°N, 6.0653°E)
Time: 10:27:50
(UTC+00:00)

Cosmos 1190 Rocket - Pass Details

Date: 14 July 2020
Orbit: 756 x 781 km, 74.1° (Epoch: 05 August)

Event Time Altitude Azimuth Distance (km) Brightness Sun altitude
Exits shadow 02:06:37 19° 225° (SW) 1,765 5.3 -13.3°
Maximum altitude 02:10:16 54° 297° (WNW) 932 4.4 -12.9°
Drops below altitude 10° 02:15:26 10° 15° (NNE) 2,322 7.7 -12.4°
Sets 02:17:53 0° 20° (NNE) 3,257 8.9 -12.2°
